This is the latest recevied weather packets stored in our database for station/object DF7ER-12. If no packets are shown the sender has not sent any weather packets the latest 10 day(s).
| Time | Temp. | Humidity | Pressure | Rain* | Wind** | Luminosity | Snow |
|---|---|---|---|---|---|---|---|
| 1787862223 | 26.11° C | 65% | 1002.4 hPa | - | - | - | - |
| 1787861929 | 25.56° C | 66% | 1002.5 hPa | - | - | - | - |
| 1787861624 | 26.11° C | 65% | 1002.5 hPa | - | - | - | - |
| 1787861324 | 26.11° C | 66% | 1002.5 hPa | - | - | - | - |
| 1787861023 | 26.11° C | 64% | 1002.6 hPa | - | - | - | - |
| 1787860723 | 26.11° C | 65% | 1002.7 hPa | - | - | - | - |
| 1787860424 | 26.11° C | 65% | 1002.7 hPa | - | - | - | - |
| 1787860124 | 26.67° C | 64% | 1002.7 hPa | - | - | - | - |
| 1787859823 | 26.67° C | 64% | 1002.6 hPa | - | - | - | - |
| 1787859523 | 26.67° C | 64% | 1002.8 hPa | - | - | - | - |
| 1787859223 | 26.67° C | 63% | 1002.8 hPa | - | - | - | - |
| 1787858924 | 27.22° C | 63% | 1002.9 hPa | - | - | - | - |
| 1787858624 | 26.67° C | 63% | 1002.7 hPa | - | - | - | - |
| 1787858324 | 27.22° C | 63% | 1002.7 hPa | - | - | - | - |
| 1787858024 | 26.67° C | 63% | 1002.7 hPa | - | - | - | - |
| 1787857723 | 27.22° C | 63% | 1002.7 hPa | - | - | - | - |
| 1787857423 | 27.22° C | 63% | 1002.7 hPa | - | - | - | - |
| 1787857123 | 27.22° C | 63% | 1002.8 hPa | - | - | - | - |
| 1787856823 | 27.22° C | 62% | 1003 hPa | - | - | - | - |
| 1787856526 | 27.78° C | 62% | 1002.8 hPa | - | - | - | - |
| 1787856223 | 27.78° C | 62% | 1002.9 hPa | - | - | - | - |
| 1787855923 | 28.33° C | 61% | 1002.9 hPa | - | - | - | - |
| 1787855624 | 28.33° C | 61% | 1002.8 hPa | - | - | - | - |
| 1787855323 | 28.33° C | 61% | 1002.7 hPa | - | - | - | - |
| 1787855023 | 28.33° C | 61% | 1002.6 hPa | - | - | - | - |
* Rain since midnight (hover to see other rain measurements)
** Current wind speed in m/s (hover to see current wind gust speed)